EW4931 Weather Reports


Display with metric or nautical units.
time (UTC)temp
F
wind
direction
speed
MPH
gust
MPH
rain 1hr
in
rain 24hr
in
rain mn
in
humidity
%
barometer
mb
20260831111731 67 282 3.0 7.0 0.00 0.00 0.00 77 1005.4
20260831111423 67 303 5.0 11.0 0.00 0.00 0.00 77 1005.4
20260831110455 67 283 4.0 9.0 0.00 0.00 0.00 76 1005.3
20260831105952 67 285 4.0 9.0 0.00 0.00 0.00 77 1005.4
20260831105230 66 309 3.0 7.0 0.00 0.00 0.00 78 1005.2
20260831104731 66 306 4.0 9.0 0.00 0.00 0.00 79 1005.1
20260831104232 66 292 4.0 10.0 0.00 0.00 0.00 79 1005.2
20260831103732 66 271 6.0 10.0 0.00 0.00 0.00 79 1005.3
20260831103231 66 313 6.0 12.0 0.00 0.00 0.00 80 1005.3
20260831102730 65 265 4.0 12.0 0.00 0.00 0.00 80 1005.3
20260831102224 65 290 7.0 11.0 0.00 0.00 0.00 80 1005.4
20260831101725 65 285 4.0 11.0 0.00 0.00 0.00 80 1005.3
20260831101224 65 281 4.0 10.0 0.00 0.00 0.00 80 1005.3
20260831100722 65 289 3.0 10.0 0.00 0.00 0.00 80 1005.2
20260831100223 65 289 4.0 11.0 0.00 0.00 0.00 80 1005.3
20260831095723 65 244 4.0 11.0 0.00 0.00 0.00 79 1005.3
20260831095222 66 302 4.0 9.0 0.00 0.00 0.00 79 1005.2
20260831094722 66 293 2.0 7.0 0.00 0.00 0.00 81 1005.2
20260831094222 65 275 4.0 12.0 0.00 0.00 0.00 82 1005.2
20260831093722 64 286 4.0 13.0 0.00 0.00 0.00 82 1005.2
20260831093221 64 275 5.0 13.0 0.00 0.00 0.00 82 1005.2
20260831092944 64 292 6.0 12.0 0.00 0.00 0.00 82 1005.1
20260831092222 64 279 4.0 11.0 0.00 0.00 0.00 83 1005.1
20260831091722 64 309 7.0 11.0 0.00 0.00 0.00 82 1005.0
20260831091221 64 281 3.0 13.0 0.00 0.00 0.00 83 1005.0
20260831090938 64 274 3.0 13.0 0.00 0.00 0.00 83 1005.0
20260831090222 64 271 6.0 14.0 0.00 0.00 0.00 84 1005.0
20260831085721 64 295 7.0 14.0 0.00 0.00 0.00 84 1004.9
20260831085220 64 265 8.0 15.0 0.00 0.00 0.00 84 1004.7
20260831084721 64 272 6.0 15.0 0.00 0.00 0.00 84 1004.8
20260831084221 64 274 4.0 12.0 0.00 0.00 0.00 85 1004.7
20260831083720 64 290 7.0 12.0 0.00 0.00 0.00 84 1004.7
20260831083222 64 279 6.0 14.0 0.00 0.00 0.00 84 1004.7
20260831082720 64 312 7.0 14.0 0.00 0.00 0.00 85 1004.6
20260831082221 64 299 5.0 13.0 0.00 0.00 0.00 85 1004.5
20260831081720 64 282 8.0 13.0 0.00 0.00 0.00 84 1004.5
20260831081220 64 261 7.0 11.0 0.00 0.00 0.00 85 1004.4
20260831080720 64 300 4.0 14.0 0.00 0.00 0.00 86 1004.4
20260831080219 63 316 7.0 14.0 0.00 0.00 0.00 87 1004.3
20260831075720 63 316 5.0 12.0 0.00 0.00 0.00 87 1004.3
20260831075221 63 290 5.0 15.0 0.00 0.00 0.00 87 1004.3
20260831074720 63 278 8.0 15.0 0.00 0.00 0.00 88 1004.2
20260831074444 63 313 8.0 12.0 0.00 0.00 0.00 88 1004.2
20260831073719 63 309 6.0 12.0 0.00 0.00 0.00 88 1004.2
20260831073219 63 271 4.0 12.0 0.00 0.00 0.00 88 1004.2
20260831072719 63 289 7.0 15.0 0.00 0.00 0.00 88 1004.1
20260831072219 63 250 6.0 15.0 0.00 0.00 0.00 89 1004.1
20260831071719 63 288 7.0 14.0 0.00 0.00 0.00 90 1004.1
20260831071218 62 292 6.0 10.0 0.00 0.00 0.00 90 1003.9
20260831070719 62 282 6.0 12.0 0.00 0.00 0.00 91 1003.9
20260831070442 62 296 6.0 12.0 0.00 0.00 0.00 91 1003.9
20260831065719 62 312 5.0 11.0 0.00 0.00 0.00 90 1003.8
20260831065438 62 340 5.0 15.0 0.00 0.00 0.00 90 1003.8
20260831064718 62 289 5.0 15.0 0.00 0.00 0.00 91 1003.8
20260831064219 62 299 7.0 13.0 0.00 0.00 0.00 91 1003.7
20260831063718 62 288 7.0 12.0 0.00 0.00 0.00 91 1003.6
20260831063218 62 327 7.0 13.0 0.00 0.00 0.00 91 1003.5
20260831062718 62 268 4.0 13.0 0.00 0.00 0.00 91 1003.5
20260831062217 63 309 5.0 13.0 0.00 0.00 0.00 90 1003.4
20260831061717 63 300 5.0 12.0 0.00 0.00 0.00 90 1003.3
20260831061218 63 262 5.0 13.0 0.00 0.00 0.00 90 1003.4
20260831060717 63 285 5.0 13.0 0.00 0.00 0.00 90 1003.3
20260831060440 63 269 5.0 10.0 0.00 0.00 0.00 90 1003.3
20260831055717 64 298 3.0 10.0 0.00 0.00 0.00 90 1003.2
20260831055217 64 300 4.0 10.0 0.00 0.00 0.00 90 1003.2
20260831054717 64 283 6.0 10.0 0.00 0.00 0.00 89 1003.1
20260831054217 64 275 3.0 13.0 0.00 0.00 0.00 89 1003.1
20260831053716 64 235 5.0 13.0 0.00 0.00 0.00 89 1003.0
20260831053217 64 300 3.0 10.0 0.00 0.00 0.00 89 1002.9
20260831052716 64 282 4.0 10.0 0.00 0.00 0.00 90 1002.8
20260831052216 63 276 4.0 11.0 0.00 0.00 0.00 90 1002.8
20260831051716 63 276 5.0 11.0 0.00 0.00 0.00 90 1002.9
20260831051229 63 278 3.0 11.0 0.00 0.00 0.00 90 1002.8
20260831050716 63 268 4.0 12.0 0.00 0.00 0.00 90 1002.8
20260831050448 63 271 6.0 12.0 0.00 0.00 0.00 91 1002.7
20260831045717 63 285 4.0 13.0 0.00 0.00 0.00 91 1002.7
20260831045217 63 255 5.0 13.0 0.00 0.00 0.00 91 1002.7
20260831044716 63 245 3.0 9.0 0.00 0.00 0.00 92 1002.6
20260831044216 63 281 4.0 13.0 0.00 0.00 0.00 92 1002.5
20260831043940 63 299 3.0 13.0 0.00 0.00 0.00 92 1002.5
20260831043216 63 272 6.0 12.0 0.00 0.00 0.00 93 1002.5
20260831042715 63 271 2.0 7.0 0.00 0.00 0.00 94 1002.5
20260831042215 63 282 4.0 7.0 0.00 0.00 0.00 94 1002.4
20260831041715 63 278 2.0 6.0 0.00 0.00 0.00 94 1002.3
20260831041438 63 269 2.0 4.0 0.00 0.00 0.00 94 1002.4
20260831040728 63 269 2.0 4.0 0.00 0.00 0.00 94 1002.4
20260831040215 63 234 1.0 5.0 0.00 0.00 0.00 94 1002.3
20260831035715 63 252 2.0 6.0 0.00 0.00 0.00 95 1002.3
20260831035215 63 274 3.0 6.0 0.00 0.00 0.00 95 1002.2
20260831034715 63 272 2.0 7.0 0.00 0.00 0.00 95 1002.3
20260831034440 63 265 3.0 7.0 0.00 0.00 0.00 95 1002.2
20260831033715 63 312 2.0 6.0 0.00 0.00 0.00 95 1002.2
20260831033436 63 274 1.0 5.0 0.00 0.00 0.00 95 1002.2
20260831032713 63 275 2.0 4.0 0.00 0.00 0.00 95 1002.1
20260831032214 63 313 1.0 5.0 0.00 0.00 0.00 95 1002.1
20260831031726 63 282 2.0 6.0 0.00 0.00 0.00 95 1002.1
20260831031214 63 309 3.0 5.0 0.00 0.00 0.00 95 1002.0
20260831030727 63 279 2.0 9.0 0.00 0.00 0.00 95 1002.1
20260831030438 63 275 4.0 9.0 0.00 0.00 0.00 95 1002.1
20260831025713 63 275 2.0 4.0 0.00 0.00 0.00 95 1002.1
20260831025440 63 290 1.0 3.0 0.00 0.00 0.00 95 1002.1
20260831024713 63 303 1.0 3.0 0.00 0.00 0.00 95 1002.1
20260831024218 63 282 0.0 4.0 0.00 0.00 0.00 95 1002.0
20260831023713 63 274 0.0 4.0 0.00 0.00 0.00 95 1002.1
20260831023213 63 250 1.0 3.0 0.00 0.00 0.00 95 1002.0
20260831022713 63 290 1.0 2.0 0.00 0.00 0.00 95 1002.0
20260831022213 63 237 1.0 2.0 0.00 0.00 0.00 95 1002.1
20260831021713 63 272 0.0 2.0 0.00 0.00 0.00 95 1002.1
20260831021213 63 272 0.0 2.0 0.00 0.00 0.00 95 1002.1
20260831020712 63 288 1.0 2.0 0.00 0.00 0.00 95 1002.0
20260831020212 63 288 0.0 3.0 0.00 0.00 0.00 95 1002.0
20260831015712 63 288 0.0 3.0 0.00 0.00 0.00 95 1001.9
20260831015214 63 288 0.0 3.0 0.00 0.00 0.00 95 1001.9
20260831014713 63 289 1.0 2.0 0.00 0.00 0.00 95 1001.9
20260831014213 63 289 0.0 2.0 0.00 0.00 0.00 95 1001.9
20260831013939 63 289 0.0 2.0 0.00 0.00 0.00 95 1001.8
20260831013213 63 289 0.0 2.0 0.00 0.00 0.00 95 1001.9
20260831012713 63 289 0.0 2.0 0.00 0.00 0.00 95 1001.8
20260831012212 63 289 0.0 2.0 0.00 0.00 0.00 95 1001.8
20260831011712 63 289 0.0 2.0 0.00 0.00 0.00 94 1001.8
20260831011441 63 289 0.0 1.0 0.00 0.00 0.00 94 1001.8
20260831010713 63 289 0.0 1.0 0.00 0.00 0.00 94 1001.9
20260831010212 63 289 0.0 1.0 0.00 0.00 0.00 94 1001.9
20260831005932 63 289 0.0 1.0 0.00 0.00 0.00 94 1001.9
20260831005211 63 289 1.0 2.0 0.00 0.00 0.00 95 1001.9
20260831004711 63 289 0.0 2.0 0.00 0.00 0.00 94 1001.9
20260831004211 63 203 0.0 0.0 0.00 0.00 0.00 94 1001.9
20260831003712 63 203 0.0 0.0 0.00 0.00 0.00 94 1002.0
20260831003434 63 203 0.0 0.0 0.00 0.00 0.00 94 1002.0
20260831002711 63 203 0.0 0.0 0.00 0.00 0.00 94 1002.1
20260831002211 63 203 0.0 0.0 0.00 0.00 0.00 94 1002.1
20260831001711 63 203 0.0 0.0 0.00 0.00 0.00 94 1002.1
20260831001211 63 203 0.0 1.0 0.00 0.00 0.00 94 1002.1
20260831000913 63 203 0.0 1.0 0.00 0.00 0.00 94 1002.1
20260830235711 63 203 0.0 0.0 0.00 0.00 0.00 94 1002.1
20260830235210 63 203 0.0 0.0 0.00 0.00 0.00 94 1002.0
20260830234710 63 203 0.0 0.0 0.00 0.00 0.00 94 1001.9
20260830234211 63 203 0.0 0.0 0.00 0.00 0.00 94 1002.0
20260830233710 63 203 0.0 1.0 0.00 0.00 0.00 94 1002.0
20260830233210 63 203 0.0 1.0 0.00 0.00 0.00 94 1002.2
20260830232935 63 203 0.0 1.0 0.00 0.00 0.00 94 1002.2
20260830232210 63 203 0.0 1.0 0.00 0.00 0.00 94 1002.2
20260830231710 63 203 0.0 1.0 0.00 0.00 0.00 94 1002.2
20260830231434 63 203 0.0 1.0 0.00 0.00 0.00 94 1002.1
20260830230709 63 203 0.0 0.0 0.00 0.00 0.00 94 1002.1
20260830230210 63 203 0.0 0.0 0.00 0.00 0.00 94 1002.1
20260830225710 63 203 0.0 0.0 0.00 0.00 0.00 93 1002.1
20260830225641 63 203 0.0 2.0 0.00 0.00 0.00 93 1002.2
20260830224213 63 175 1.0 4.0 0.00 0.00 0.00 93 1002.2
20260830223709 63 173 0.0 4.0 0.00 0.00 0.00 93 1002.2
20260830223208 63 180 0.0 2.0 0.00 0.00 0.00 93 1002.2
20260830222937 63 214 1.0 2.0 0.00 0.00 0.00 93 1002.2
20260830222209 63 217 0.0 2.0 0.00 0.00 0.00 93 1002.2
20260830221709 63 219 0.0 2.0 0.00 0.00 0.00 93 1002.2
20260830221209 63 216 0.0 2.0 0.00 0.00 0.00 93 1002.2
20260830220933 64 190 0.0 2.0 0.00 0.00 0.00 93 1002.2
20260830220208 64 135 0.0 2.0 0.00 0.00 0.00 93 1002.2
20260830215708 64 193 0.0 3.0 0.00 0.00 0.00 93 1002.3
20260830215208 64 173 0.0 3.0 0.00 0.00 0.00 93 1002.3
20260830214932 64 197 0.0 2.0 0.00 0.00 0.00 92 1002.5
20260830214207 64 197 0.0 2.0 0.00 0.00 0.00 93 1002.4
20260830213708 64 197 0.0 2.0 0.00 0.00 0.00 92 1002.5
20260830213207 64 197 1.0 2.0 0.00 0.00 0.00 92 1002.5
20260830212707 64 175 0.0 2.0 0.00 0.00 0.00 92 1002.6
20260830212208 64 231 0.0 1.0 0.00 0.00 0.00 92 1002.6
20260830211707 64 231 0.0 2.0 0.00 0.00 0.00 92 1002.6
20260830211207 64 235 1.0 3.0 0.00 0.00 0.00 92 1002.7
20260830210927 64 192 0.0 3.0 0.00 0.00 0.00 91 1002.7
20260830210432 64 209 0.0 4.0 0.00 0.00 0.00 91 1002.7
20260830205707 64 251 0.0 4.0 0.00 0.00 0.00 91 1002.7
20260830205207 64 209 0.0 4.0 0.00 0.00 0.00 91 1002.7
20260830204707 64 259 1.0 4.0 0.00 0.00 0.00 91 1002.8
20260830204206 64 204 2.0 3.0 0.00 0.00 0.00 91 1002.7
20260830203707 64 233 0.0 3.0 0.00 0.00 0.00 91 1002.8
20260830203207 64 233 2.0 3.0 0.00 0.00 0.00 91 1002.9
20260830202931 64 186 1.0 3.0 0.00 0.00 0.00 91 1002.9
20260830202206 64 235 0.0 6.0 0.00 0.00 0.00 91 1002.9
20260830201706 64 216 4.0 6.0 0.00 0.00 0.00 91 1002.9
20260830201207 64 224 3.0 6.0 0.00 0.00 0.00 91 1002.9
20260830200706 64 213 2.0 5.0 0.00 0.00 0.00 91 1002.9
20260830200427 64 197 2.0 4.0 0.00 0.00 0.00 91 1003.0
20260830195705 64 269 0.0 4.0 0.00 0.00 0.00 91 1003.0
20260830195207 64 182 1.0 5.0 0.00 0.00 0.00 91 1002.9
20260830194707 64 216 3.0 5.0 0.00 0.00 0.00 92 1003.0
20260830194207 64 183 2.0 4.0 0.00 0.00 0.00 92 1003.0
20260830193706 64 233 2.0 4.0 0.00 0.00 0.00 92 1003.1
20260830193205 64 200 1.0 4.0 0.00 0.00 0.00 92 1003.1
20260830192705 64 159 1.0 5.0 0.00 0.00 0.00 92 1003.1
20260830192206 64 172 0.0 5.0 0.00 0.00 0.00 92 1003.1
20260830191707 64 192 3.0 4.0 0.00 0.00 0.00 92 1003.1
20260830191204 64 169 1.0 4.0 0.00 0.00 0.00 92 1003.2
20260830190705 64 231 1.0 5.0 0.00 0.00 0.00 92 1003.2
20260830190204 64 213 1.0 5.0 0.00 0.00 0.00 92 1003.2
20260830185706 64 219 2.0 5.0 0.00 0.00 0.00 92 1003.1
20260830185204 64 204 3.0 5.0 0.00 0.00 0.00 92 1003.2
20260830184707 64 189 0.0 4.0 0.00 0.00 0.00 92 1003.2
20260830184206 64 137 1.0 6.0 0.00 0.00 0.00 92 1003.2
20260830183705 64 185 3.0 6.0 0.00 0.00 0.00 92 1003.2
20260830183205 64 190 0.0 4.0 0.00 0.00 0.00 92 1003.2
20260830182705 64 189 2.0 4.0 0.00 0.00 0.00 91 1003.3
20260830182434 64 213 1.0 4.0 0.00 0.00 0.00 91 1003.3
20260830181705 64 204 1.0 3.0 0.00 0.00 0.00 91 1003.3
20260830181434 64 193 1.0 5.0 0.00 0.00 0.00 91 1003.4
20260830180705 64 197 0.0 5.0 0.00 0.00 0.00 91 1003.4
20260830180205 64 196 2.0 6.0 0.00 0.00 0.00 91 1003.4
20260830175704 64 180 1.0 6.0 0.00 0.00 0.00 91 1003.4
20260830175428 64 268 2.0 5.0 0.00 0.00 0.00 91 1003.4
20260830174703 64 224 2.0 7.0 0.00 0.00 0.00 91 1003.4
20260830174204 64 224 0.0 7.0 0.00 0.00 0.00 91 1003.4
20260830173704 64 206 1.0 5.0 0.00 0.00 0.00 91 1003.5
20260830173205 64 185 2.0 9.0 0.00 0.00 0.00 91 1003.5
20260830172704 64 237 1.0 9.0 0.00 0.00 0.00 91 1003.5
20260830172204 64 209 1.0 4.0 0.00 0.00 0.00 91 1003.5
20260830171704 64 200 2.0 5.0 0.00 0.00 0.00 91 1003.5
20260830171204 64 193 2.0 6.0 0.00 0.00 0.00 91 1003.5
20260830170704 64 178 4.0 6.0 0.00 0.00 0.00 91 1003.5
20260830170647 64 192 0.0 5.0 0.00 0.00 0.00 92 1003.6
20260830165704 64 158 3.0 5.0 0.00 0.00 0.00 92 1003.6
20260830165204 64 188 1.0 5.0 0.00 0.00 0.00 92 1003.6
20260830164704 64 182 1.0 5.0 0.00 0.00 0.00 92 1003.6
20260830164204 64 180 3.0 5.0 0.00 0.00 0.00 92 1003.6
20260830163704 64 154 0.0 3.0 0.00 0.00 0.00 92 1003.6
20260830163203 64 151 2.0 6.0 0.00 0.00 0.00 91 1003.7
20260830162703 64 178 3.0 6.0 0.00 0.00 0.00 91 1003.7
20260830162203 64 186 2.0 5.0 0.00 0.00 0.00 91 1003.7
20260830161704 64 165 2.0 6.0 0.00 0.00 0.00 91 1003.8
20260830161203 64 180 2.0 9.0 0.00 0.00 0.00 91 1003.8
20260830160703 64 161 3.0 9.0 0.00 0.00 0.00 91 1003.8
20260830160216 64 173 2.0 7.0 0.00 0.00 0.00 91 1003.9
20260830155704 64 164 3.0 9.0 0.00 0.00 0.00 91 1003.9
20260830155425 64 180 4.0 9.0 0.00 0.00 0.00 91 1003.9
20260830154704 64 219 2.0 5.0 0.00 0.00 0.00 91 1004.0
20260830154203 64 144 4.0 6.0 0.00 0.00 0.00 91 1004.0
20260830153927 64 158 3.0 6.0 0.00 0.00 0.00 91 1004.2
20260830153203 64 158 2.0 6.0 0.00 0.00 0.00 91 1004.2
20260830152703 63 154 4.0 6.0 0.00 0.00 0.00 91 1004.3
20260830152204 63 149 2.0 4.0 0.00 0.00 0.00 91 1004.4
20260830151704 63 209 2.0 4.0 0.00 0.00 0.00 91 1004.5
20260830151204 63 151 2.0 4.0 0.00 0.00 0.00 91 1004.5
20260830150704 63 164 2.0 4.0 0.00 0.00 0.00 91 1004.5
20260830150204 63 171 1.0 3.0 0.00 0.00 0.00 91 1004.6
20260830145703 63 193 1.0 3.0 0.00 0.00 0.00 92 1004.7
20260830145647 63 166 1.0 3.0 0.00 0.00 0.00 91 1004.7
20260830144703 63 157 0.0 3.0 0.00 0.00 0.00 91 1004.6
20260830144204 63 207 1.0 3.0 0.00 0.00 0.00 92 1004.7
20260830144149 63 186 1.0 3.0 0.00 0.00 0.00 91 1004.8
20260830143203 63 200 2.0 3.0 0.00 0.00 0.00 91 1004.8
20260830142704 63 213 1.0 3.0 0.00 0.00 0.00 91 1004.9
20260830142420 63 210 1.0 3.0 0.00 0.00 0.00 92 1004.9
20260830141702 63 210 1.0 4.0 0.00 0.00 0.00 92 1004.9
20260830141202 63 193 2.0 4.0 0.00 0.00 0.00 92 1005.0
20260830141142 62 185 1.0 4.0 0.00 0.00 0.00 92 1005.0
20260830140430 62 196 1.0 4.0 0.00 0.00 0.00 91 1005.1
20260830135706 62 228 2.0 4.0 0.00 0.00 0.00 91 1005.0
20260830135204 62 199 2.0 4.0 0.00 0.00 0.00 91 1005.0
20260830134706 62 244 2.0 5.0 0.00 0.00 0.00 91 1005.0
20260830134204 62 278 1.0 5.0 0.00 0.00 0.00 91 1005.1
20260830133924 63 231 2.0 5.0 0.00 0.00 0.00 92 1005.2
20260830133203 62 252 0.0 5.0 0.00 0.00 0.00 92 1005.2
20260830132704 62 178 2.0 5.0 0.00 0.00 0.00 91 1005.3
20260830132423 63 202 2.0 6.0 0.00 0.00 0.00 92 1005.3
20260830131703 63 172 2.0 6.0 0.00 0.00 0.00 92 1005.2
20260830131203 63 217 2.0 3.0 0.00 0.00 0.00 92 1005.2
20260830130703 63 221 0.0 3.0 0.00 0.00 0.00 92 1005.2
20260830130203 62 221 0.0 3.0 0.00 0.00 0.00 92 1005.2
20260830125928 62 247 1.0 4.0 0.00 0.00 0.00 91 1005.3
20260830125428 62 172 2.0 4.0 0.00 0.00 0.00 91 1005.3
20260830124704 62 203 1.0 7.0 0.00 0.00 0.00 90 1005.3
20260830124205 62 196 2.0 7.0 0.00 0.00 0.00 90 1005.3
20260830123704 62 202 2.0 6.0 0.00 0.00 0.00 89 1005.4
20260830123204 62 245 2.0 6.0 0.00 0.00 0.00 89 1005.4
20260830122705 62 240 3.0 7.0 0.00 0.00 0.00 88 1005.4
20260830122204 63 235 3.0 7.0 0.00 0.00 0.00 88 1005.5
20260830121705 63 281 2.0 5.0 0.00 0.00 0.00 87 1005.5
20260830121205 64 221 2.0 10.0 0.00 0.00 0.00 87 1005.5
20260830120705 64 0 4.0 10.0 0.00 0.00 0.00 86 1005.5
20260830120205 64 266 4.0 11.0 0.00 0.00 0.00 85 1005.5
20260830115704 64 299 4.0 11.0 0.00 0.00 0.00 84 1005.5
20260830115204 65 268 3.0 9.0 0.00 0.00 0.00 82 1005.5
20260830114924 66 221 5.0 10.0 0.00 0.00 0.00 80 1005.5
20260830114204 66 271 4.0 12.0 0.00 0.00 0.00 78 1005.4
20260830113704 66 233 5.0 12.0 0.00 0.00 0.00 78 1005.3
20260830113205 67 269 4.0 10.0 0.00 0.00 0.00 79 1005.3
20260830112704 67 223 2.0 12.0 0.00 0.00 0.00 79 1005.4
20260830112209 66 278 6.0 11.0 0.00 0.00 0.00 78 1005.3